Time,TemperatureF,DewpointF,PressureIn,WindDirection,WindDirectionDegrees,WindSpeedMPH,WindSpeedGustMPH,Humidity,HourlyPrecipIn,Conditions,Clouds,dailyrainin,SoftwareType,DateUTC
2013-01-03 00:00:00,18.7,12.1,30.06,North,6,7.0,14.0,75,0.00,,,0.00,WUHU216DAVISVP2,2013-01-03 05:00:00,
2013-01-03 00:01:00,18.7,12.1,30.06,North,6,7.0,14.0,75,0.00,,,0.00,WUHU216DAVISVP2,2013-01-03 05:01:00,
2013-01-03 00:02:00,18.7,12.1,30.06,North,359,3.0,14.0,75,0.00,,,0.00,WUHU216DAVISVP2,2013-01-03 05:02:00,
2013-01-03 00:07:00,18.5,12.2,30.06,NW,326,5.0,14.0,76,0.00,,,0.00,WUHU216DAVISVP2,2013-01-03 05:07:00,
2013-01-03 00:12:00,18.4,12.1,30.06,NNW,331,4.0,11.0,76,0.00,,,0.00,WUHU216DAVISVP2,2013-01-03 05:12:00,
2013-01-03 00:17:00,18.3,12.0,30.06,North,359,7.0,11.0,76,0.00,,,0.00,WUHU216DAVISVP2,2013-01-03 05:17:00,
2013-01-03 00:22:00,18.2,12.2,30.05,NNE,17,4.0,11.0,77,0.00,,,0.00,WUHU216DAVISVP2,2013-01-03 05:22:00,
2013-01-03 00:27:00,18.2,12.2,30.05,NNE,15,6.0,11.0,77,0.00,,,0.00,WUHU216DAVISVP2,2013-01-03 05:27:00,
2013-01-03 00:32:00,18.2,12.2,30.05,North,354,6.0,12.0,77,0.00,,,0.00,WUHU216DAVISVP2,2013-01-03 05:32:00,
2013-01-03 00:37:00,18.1,12.4,30.05,NNE,25,5.0,12.0,78,0.00,,,0.00,WUHU216DAVISVP2,2013-01-03 05:37:00,
2013-01-03 00:42:00,18.1,12.4,30.05,NNW,329,4.0,10.0,78,0.00,,,0.00,WUHU216DAVISVP2,2013-01-03 05:42:00,
2013-01-03 00:47:00,18.1,12.4,30.05,North,359,9.0,10.0,78,0.00,,,0.00,WUHU216DAVISVP2,2013-01-03 05:47:00,
2013-01-03 00:52:00,18.1,12.7,30.04,NW,317,6.0,10.0,79,0.00,,,0.00,WUHU216DAVISVP2,2013-01-03 05:52:00,
2013-01-03 00:57:00,18.1,12.7,30.04,NNW,327,7.0,12.0,79,0.00,,,0.00,WUHU216DAVISVP2,2013-01-03 05:57:00,
2013-01-03 01:02:00,18.1,12.7,30.04,NNE,27,5.0,12.0,79,0.00,,,0.00,WUHU216DAVISVP2,2013-01-03 06:02:00,
2013-01-03 01:07:00,18.1,13.0,30.04,North,8,5.0,11.0,80,0.00,,,0.00,WUHU216DAVISVP2,2013-01-03 06:07:00,
2013-01-03 01:12:00,18.1,13.0,30.04,North,5,6.0,11.0,80,0.00,,,0.00,WUHU216DAVISVP2,2013-01-03 06:12:00,
2013-01-03 01:17:00,18.2,13.1,30.04,NNW,331,6.0,11.0,80,0.00,,,0.00,WUHU216DAVISVP2,2013-01-03 06:17:00,
2013-01-03 01:22:00,18.1,13.0,30.04,North,8,5.0,9.0,80,0.00,,,0.00,WUHU216DAVISVP2,2013-01-03 06:22:00,
2013-01-03 01:27:00,18.2,13.3,30.04,North,9,2.0,8.0,81,0.00,,,0.00,WUHU216DAVISVP2,2013-01-03 06:27:00,
2013-01-03 01:32:00,18.2,13.3,30.04,NNE,16,4.0,8.0,81,0.00,,,0.00,WUHU216DAVISVP2,2013-01-03 06:32:00,
2013-01-03 01:37:00,18.2,13.3,30.03,North,8,1.0,8.0,81,0.00,,,0.00,WUHU216DAVISVP2,2013-01-03 06:37:00,
2013-01-03 01:42:00,18.2,13.3,30.04,NE,34,5.0,8.0,81,0.00,,,0.00,WUHU216DAVISVP2,2013-01-03 06:42:00,
2013-01-03 01:47:00,18.2,13.3,30.04,NNW,340,5.0,8.0,81,0.00,,,0.00,WUHU216DAVISVP2,2013-01-03 06:47:00,
2013-01-03 01:52:00,18.2,13.3,30.04,NNW,346,7.0,8.0,81,0.00,,,0.00,WUHU216DAVISVP2,2013-01-03 06:52:00,
2013-01-03 01:58:00,18.3,13.4,30.03,NE,53,1.0,8.0,81,0.00,,,0.00,WUHU216DAVISVP2,2013-01-03 06:58:00,
2013-01-03 02:03:00,18.3,13.4,30.03,NNE,29,3.0,8.0,81,0.00,,,0.00,WUHU216DAVISVP2,2013-01-03 07:03:00,
2013-01-03 02:08:00,18.3,13.4,30.03,North,350,2.0,7.0,81,0.00,,,0.00,WUHU216DAVISVP2,2013-01-03 07:08:00,
2013-01-03 02:13:00,18.3,13.4,30.03,NNE,15,5.0,8.0,81,0.00,,,0.00,WUHU216DAVISVP2,2013-01-03 07:13:00,
2013-01-03 02:18:00,18.3,13.4,30.03,North,8,3.0,8.0,81,0.00,,,0.00,WUHU216DAVISVP2,2013-01-03 07:18:00,
2013-01-03 02:23:00,18.3,13.4,30.03,North,349,5.0,10.0,81,0.00,,,0.00,WUHU216DAVISVP2,2013-01-03 07:23:00,
2013-01-03 02:28:00,18.3,13.4,30.03,NNE,21,3.0,10.0,81,0.00,,,0.00,WUHU216DAVISVP2,2013-01-03 07:28:00,
2013-01-03 02:33:00,18.3,13.4,30.03,North,8,2.0,9.0,81,0.00,,,0.00,WUHU216DAVISVP2,2013-01-03 07:33:00,
2013-01-03 02:38:00,18.3,13.4,30.03,North,11,4.0,9.0,81,0.00,,,0.00,WUHU216DAVISVP2,2013-01-03 07:38:00,
2013-01-03 02:43:00,18.3,13.4,30.03,NNE,27,5.0,9.0,81,0.00,,,0.00,WUHU216DAVISVP2,2013-01-03 07:43:00,
2013-01-03 02:48:00,18.3,13.4,30.03,North,359,8.0,9.0,81,0.00,,,0.00,WUHU216DAVISVP2,2013-01-03 07:48:00,
2013-01-03 02:53:00,18.3,13.4,30.02,NNW,336,5.0,9.0,81,0.00,,,0.00,WUHU216DAVISVP2,2013-01-03 07:53:00,
2013-01-03 02:58:00,18.3,13.4,30.02,North,352,3.0,10.0,81,0.00,,,0.00,WUHU216DAVISVP2,2013-01-03 07:58:00,
2013-01-03 03:03:00,18.4,13.5,30.02,NE,37,3.0,10.0,81,0.00,,,0.00,WUHU216DAVISVP2,2013-01-03 08:03:00,
2013-01-03 03:08:00,18.4,13.5,30.02,North,354,6.0,10.0,81,0.00,,,0.00,WUHU216DAVISVP2,2013-01-03 08:08:00,
2013-01-03 03:13:00,18.4,13.5,30.02,North,11,3.0,9.0,81,0.00,,,0.00,WUHU216DAVISVP2,2013-01-03 08:13:00,
2013-01-03 03:18:00,18.5,13.6,30.02,NNE,21,5.0,10.0,81,0.00,,,0.00,WUHU216DAVISVP2,2013-01-03 08:18:00,
2013-01-03 03:23:00,18.5,13.6,30.02,North,5,4.0,11.0,81,0.00,,,0.00,WUHU216DAVISVP2,2013-01-03 08:23:00,
2013-01-03 03:28:00,18.6,13.7,30.01,North,8,7.0,11.0,81,0.00,,,0.00,WUHU216DAVISVP2,2013-01-03 08:28:00,
2013-01-03 03:33:00,18.6,13.7,30.01,NE,49,7.0,10.0,81,0.00,,,0.00,WUHU216DAVISVP2,2013-01-03 08:33:00,
2013-01-03 03:38:00,18.6,13.7,30.01,NE,39,7.0,10.0,81,0.00,,,0.00,WUHU216DAVISVP2,2013-01-03 08:38:00,
2013-01-03 03:43:00,18.7,14.1,30.01,NE,39,3.0,8.0,82,0.00,,,0.00,WUHU216DAVISVP2,2013-01-03 08:43:00,
2013-01-03 03:48:00,18.7,13.8,30.01,NNE,19,4.0,9.0,81,0.00,,,0.00,WUHU216DAVISVP2,2013-01-03 08:48:00,
2013-01-03 03:53:00,18.7,14.1,30.01,North,351,6.0,9.0,82,0.00,,,0.00,WUHU216DAVISVP2,2013-01-03 08:53:00,
2013-01-03 03:58:00,18.8,14.2,30.01,NNE,26,3.0,9.0,82,0.00,,,0.00,WUHU216DAVISVP2,2013-01-03 08:58:00,
2013-01-03 04:03:00,18.8,14.2,30.01,NW,309,3.0,12.0,82,0.00,,,0.00,WUHU216DAVISVP2,2013-01-03 09:03:00,
2013-01-03 04:08:00,18.8,14.2,30.01,NNE,26,4.0,12.0,82,0.00,,,0.00,WUHU216DAVISVP2,2013-01-03 09:08:00,
2013-01-03 04:13:00,18.8,14.2,30.01,NE,39,5.0,11.0,82,0.00,,,0.00,WUHU216DAVISVP2,2013-01-03 09:13:00,
2013-01-03 04:18:00,18.8,14.2,30.01,NNE,25,3.0,11.0,82,0.00,,,0.00,WUHU216DAVISVP2,2013-01-03 09:18:00,
2013-01-03 04:23:00,18.8,14.2,30.01,North,349,2.0,8.0,82,0.00,,,0.00,WUHU216DAVISVP2,2013-01-03 09:23:00,
2013-01-03 04:28:00,18.9,14.3,30.00,NE,40,4.0,9.0,82,0.00,,,0.00,WUHU216DAVISVP2,2013-01-03 09:28:00,
2013-01-03 04:33:00,18.9,14.3,30.00,North,359,5.0,9.0,82,0.00,,,0.00,WUHU216DAVISVP2,2013-01-03 09:33:00,
2013-01-03 04:38:00,18.9,14.3,30.00,North,6,3.0,8.0,82,0.00,,,0.00,WUHU216DAVISVP2,2013-01-03 09:38:00,
2013-01-03 04:43:00,18.9,14.3,29.99,NNE,13,4.0,8.0,82,0.00,,,0.00,WUHU216DAVISVP2,2013-01-03 09:43:00,
2013-01-03 04:48:00,18.9,14.6,29.99,NW,305,4.0,8.0,83,0.00,,,0.00,WUHU216DAVISVP2,2013-01-03 09:48:00,
2013-01-03 04:53:00,18.9,14.6,29.99,NNE,30,5.0,8.0,83,0.00,,,0.00,WUHU216DAVISVP2,2013-01-03 09:53:00,
2013-01-03 04:58:00,18.9,14.6,29.99,North,351,5.0,8.0,83,0.00,,,0.00,WUHU216DAVISVP2,2013-01-03 09:58:00,
2013-01-03 05:03:00,18.9,14.6,29.99,North,351,5.0,8.0,83,0.00,,,0.00,WUHU216DAVISVP2,2013-01-03 10:03:00,
2013-01-03 05:08:00,18.9,14.6,29.99,NE,51,2.0,8.0,83,0.00,,,0.00,WUHU216DAVISVP2,2013-01-03 10:08:00,
2013-01-03 05:13:00,18.8,14.7,29.98,North,358,2.0,7.0,84,0.00,,,0.00,WUHU216DAVISVP2,2013-01-03 10:13:00,
2013-01-03 05:18:00,18.8,15.0,29.98,NE,52,1.0,9.0,85,0.00,,,0.00,WUHU216DAVISVP2,2013-01-03 10:18:00,
2013-01-03 05:23:00,18.8,15.0,29.98,NNW,340,5.0,10.0,85,0.00,,,0.00,WUHU216DAVISVP2,2013-01-03 10:23:00,
2013-01-03 05:28:00,18.8,15.0,29.99,NNE,15,2.0,10.0,85,0.00,,,0.00,WUHU216DAVISVP2,2013-01-03 10:28:00,
2013-01-03 05:33:00,18.7,14.9,29.99,NNE,27,4.0,10.0,85,0.00,,,0.00,WUHU216DAVISVP2,2013-01-03 10:33:00,
2013-01-03 05:38:00,18.7,15.2,29.98,NNW,335,3.0,10.0,86,0.00,,,0.00,WUHU216DAVISVP2,2013-01-03 10:38:00,
2013-01-03 05:43:00,18.6,15.1,29.98,North,354,5.0,9.0,86,0.00,,,0.00,WUHU216DAVISVP2,2013-01-03 10:43:00,
2013-01-03 05:48:00,18.7,15.2,29.98,NNE,21,3.0,9.0,86,0.00,,,0.00,WUHU216DAVISVP2,2013-01-03 10:48:00,
2013-01-03 05:53:00,18.7,15.2,29.98,NE,51,1.0,8.0,86,0.00,,,0.00,WUHU216DAVISVP2,2013-01-03 10:53:00,
2013-01-03 05:58:00,18.8,15.3,29.98,NNW,340,4.0,9.0,86,0.00,,,0.00,WUHU216DAVISVP2,2013-01-03 10:58:00,
2013-01-03 06:03:00,18.8,15.3,29.98,NNE,13,6.0,9.0,86,0.00,,,0.00,WUHU216DAVISVP2,2013-01-03 11:03:00,
2013-01-03 06:08:00,18.8,15.3,29.98,NNE,33,2.0,8.0,86,0.00,,,0.00,WUHU216DAVISVP2,2013-01-03 11:08:00,
2013-01-03 06:13:00,18.8,15.3,29.98,NE,51,4.0,8.0,86,0.00,,,0.00,WUHU216DAVISVP2,2013-01-03 11:13:00,
2013-01-03 06:18:00,18.9,15.4,29.98,NNE,21,3.0,8.0,86,0.00,,,0.00,WUHU216DAVISVP2,2013-01-03 11:18:00,
2013-01-03 06:23:00,19.0,15.5,29.98,NNE,32,6.0,8.0,86,0.00,,,0.00,WUHU216DAVISVP2,2013-01-03 11:23:00,
2013-01-03 06:28:00,19.1,15.6,29.98,NE,37,1.0,8.0,86,0.00,,,0.00,WUHU216DAVISVP2,2013-01-03 11:28:00,
2013-01-03 06:33:00,19.2,15.9,29.98,North,349,3.0,8.0,87,0.00,,,0.00,WUHU216DAVISVP2,2013-01-03 11:33:00,
2013-01-03 06:38:00,19.3,16.0,29.98,NNE,27,4.0,7.0,87,0.00,,,0.00,WUHU216DAVISVP2,2013-01-03 11:38:00,
2013-01-03 06:43:00,19.4,15.9,29.97,NE,50,5.0,7.0,86,0.00,,,0.00,WUHU216DAVISVP2,2013-01-03 11:43:00,
2013-01-03 06:48:00,19.4,15.9,29.97,North,354,4.0,7.0,86,0.00,,,0.00,WUHU216DAVISVP2,2013-01-03 11:48:00,
2013-01-03 06:53:00,19.5,16.2,29.97,North,8,3.0,7.0,87,0.00,,,0.00,WUHU216DAVISVP2,2013-01-03 11:53:00,
2013-01-03 06:58:00,19.6,16.3,29.97,NNE,21,3.0,6.0,87,0.00,,,0.00,WUHU216DAVISVP2,2013-01-03 11:58:00,
2013-01-03 07:03:00,19.7,16.4,29.97,NE,36,7.0,7.0,87,0.00,,,0.00,WUHU216DAVISVP2,2013-01-03 12:03:00,
2013-01-03 07:08:00,19.8,16.5,29.97,NNE,29,4.0,7.0,87,0.00,,,0.00,WUHU216DAVISVP2,2013-01-03 12:08:00,
2013-01-03 07:13:00,19.9,16.6,29.98,North,4,2.0,7.0,87,0.00,,,0.00,WUHU216DAVISVP2,2013-01-03 12:13:00,
2013-01-03 07:18:00,20.0,16.7,29.98,NE,54,3.0,6.0,87,0.00,,,0.00,WUHU216DAVISVP2,2013-01-03 12:18:00,
2013-01-03 07:23:00,20.1,16.8,29.98,NE,44,4.0,6.0,87,0.00,,,0.00,WUHU216DAVISVP2,2013-01-03 12:23:00,
2013-01-03 07:28:00,20.2,17.2,29.98,NE,40,3.0,7.0,88,0.00,,,0.00,WUHU216DAVISVP2,2013-01-03 12:28:00,
2013-01-03 07:33:00,20.3,17.0,29.99,NE,50,4.0,8.0,87,0.00,,,0.00,WUHU216DAVISVP2,2013-01-03 12:33:00,
2013-01-03 07:38:00,20.3,17.0,29.98,NE,53,4.0,8.0,87,0.00,,,0.00,WUHU216DAVISVP2,2013-01-03 12:38:00,
2013-01-03 07:43:00,20.4,17.4,29.98,NE,46,6.0,8.0,88,0.00,,,0.00,WUHU216DAVISVP2,2013-01-03 12:43:00,
2013-01-03 07:48:00,20.4,17.1,29.99,NE,46,2.0,9.0,87,0.00,,,0.00,WUHU216DAVISVP2,2013-01-03 12:48:00,
2013-01-03 07:53:00,20.5,17.5,29.98,NE,51,4.0,9.0,88,0.00,,,0.00,WUHU216DAVISVP2,2013-01-03 12:53:00,
2013-01-03 07:58:00,20.5,17.5,29.98,NNE,29,4.0,8.0,88,0.00,,,0.00,WUHU216DAVISVP2,2013-01-03 12:58:00,
2013-01-03 08:03:00,20.5,17.5,29.99,ENE,60,7.0,11.0,88,0.00,,,0.00,WUHU216DAVISVP2,2013-01-03 13:03:00,
2013-01-03 08:08:00,20.6,17.6,29.99,NE,37,1.0,11.0,88,0.00,,,0.00,WUHU216DAVISVP2,2013-01-03 13:08:00,
2013-01-03 08:13:00,20.6,17.6,29.99,NE,46,2.0,10.0,88,0.00,,,0.00,WUHU216DAVISVP2,2013-01-03 13:13:00,
2013-01-03 08:18:00,20.6,17.6,29.99,NE,46,3.0,9.0,88,0.00,,,0.00,WUHU216DAVISVP2,2013-01-03 13:18:00,
2013-01-03 08:23:00,20.7,17.7,29.99,NE,39,5.0,9.0,88,0.00,,,0.00,WUHU216DAVISVP2,2013-01-03 13:23:00,
2013-01-03 08:28:00,20.8,17.8,29.99,NE,53,2.0,7.0,88,0.00,,,0.00,WUHU216DAVISVP2,2013-01-03 13:28:00,
2013-01-03 08:33:00,20.9,17.9,29.98,NE,52,3.0,8.0,88,0.00,,,0.00,WUHU216DAVISVP2,2013-01-03 13:33:00,
2013-01-03 08:38:00,21.0,18.2,29.99,NE,53,2.0,8.0,89,0.00,,,0.00,WUHU216DAVISVP2,2013-01-03 13:38:00,
2013-01-03 08:43:00,21.1,18.3,29.99,NE,36,2.0,7.0,89,0.00,,,0.00,WUHU216DAVISVP2,2013-01-03 13:43:00,
2013-01-03 08:48:00,21.2,18.4,29.99,ENE,57,4.0,6.0,89,0.00,,,0.00,WUHU216DAVISVP2,2013-01-03 13:48:00,
2013-01-03 08:53:00,21.3,18.5,29.99,NNE,27,5.0,7.0,89,0.00,,,0.00,WUHU216DAVISVP2,2013-01-03 13:53:00,
2013-01-03 08:58:00,21.5,18.7,29.99,NE,51,5.0,7.0,89,0.00,,,0.00,WUHU216DAVISVP2,2013-01-03 13:58:00,
2013-01-03 09:03:00,21.5,19.0,30.00,East,84,1.0,8.0,90,0.00,,,0.00,WUHU216DAVISVP2,2013-01-03 14:03:00,
2013-01-03 09:08:00,21.6,19.1,30.00,SE,136,3.0,8.0,90,0.00,,,0.00,WUHU216DAVISVP2,2013-01-03 14:08:00,
2013-01-03 09:13:00,21.7,19.2,30.00,East,83,3.0,7.0,90,0.00,,,0.00,WUHU216DAVISVP2,2013-01-03 14:13:00,
2013-01-03 09:18:00,21.6,19.1,30.00,East,91,3.0,6.0,90,0.00,,,0.00,WUHU216DAVISVP2,2013-01-03 14:18:00,
2013-01-03 09:23:00,21.7,19.2,30.00,East,92,2.0,6.0,90,0.00,,,0.00,WUHU216DAVISVP2,2013-01-03 14:23:00,
2013-01-03 09:28:00,21.7,19.2,30.01,ENE,75,2.0,5.0,90,0.00,,,0.00,WUHU216DAVISVP2,2013-01-03 14:28:00,
2013-01-03 09:33:00,21.7,19.4,30.01,East,83,2.0,5.0,91,0.00,,,0.00,WUHU216DAVISVP2,2013-01-03 14:33:00,
2013-01-03 09:38:00,21.8,19.5,30.01,ENE,60,2.0,4.0,91,0.00,,,0.00,WUHU216DAVISVP2,2013-01-03 14:38:00,
2013-01-03 09:43:00,21.8,19.5,30.01,ESE,105,1.0,4.0,91,0.00,,,0.00,WUHU216DAVISVP2,2013-01-03 14:43:00,
2013-01-03 09:48:00,21.9,19.6,30.01,ENE,57,1.0,4.0,91,0.00,,,0.00,WUHU216DAVISVP2,2013-01-03 14:48:00,
2013-01-03 09:53:00,21.9,19.6,30.01,ENE,70,1.0,3.0,91,0.00,,,0.00,WUHU216DAVISVP2,2013-01-03 14:53:00,
2013-01-03 09:58:00,22.0,19.7,30.01,NE,56,2.0,3.0,91,0.00,,,0.00,WUHU216DAVISVP2,2013-01-03 14:58:00,
2013-01-03 10:03:00,22.1,20.1,30.01,NE,43,2.0,4.0,92,0.00,,,0.00,WUHU216DAVISVP2,2013-01-03 15:03:00,
2013-01-03 10:08:00,22.2,20.2,30.01,ENE,70,1.0,4.0,92,0.00,,,0.00,WUHU216DAVISVP2,2013-01-03 15:08:00,
2013-01-03 10:13:00,22.3,20.3,30.02,NE,51,3.0,5.0,92,0.00,,,0.00,WUHU216DAVISVP2,2013-01-03 15:13:00,
2013-01-03 10:18:00,22.4,20.4,30.02,NE,43,2.0,5.0,92,0.00,,,0.00,WUHU216DAVISVP2,2013-01-03 15:18:00,
2013-01-03 10:23:00,22.5,20.7,30.02,NE,44,2.0,5.0,93,0.00,,,0.00,WUHU216DAVISVP2,2013-01-03 15:23:00,
2013-01-03 10:28:00,22.6,20.8,30.02,ENE,60,4.0,5.0,93,0.00,,,0.00,WUHU216DAVISVP2,2013-01-03 15:28:00,
2013-01-03 10:33:00,22.7,20.9,30.02,ENE,67,2.0,5.0,93,0.00,,,0.00,WUHU216DAVISVP2,2013-01-03 15:33:00,
2013-01-03 10:38:00,22.9,21.1,30.02,ENE,69,2.0,5.0,93,0.00,,,0.00,WUHU216DAVISVP2,2013-01-03 15:38:00,
2013-01-03 10:43:00,23.0,21.2,30.02,East,80,3.0,5.0,93,0.00,,,0.00,WUHU216DAVISVP2,2013-01-03 15:43:00,
2013-01-03 10:48:00,23.1,21.3,30.02,ENE,72,3.0,5.0,93,0.00,,,0.00,WUHU216DAVISVP2,2013-01-03 15:48:00,
2013-01-03 10:53:00,23.3,21.5,30.02,ENE,76,2.0,4.0,93,0.00,,,0.00,WUHU216DAVISVP2,2013-01-03 15:53:00,
2013-01-03 10:58:00,23.4,21.6,30.02,ENE,65,3.0,4.0,93,0.00,,,0.00,WUHU216DAVISVP2,2013-01-03 15:58:00,
2013-01-03 11:03:00,23.6,21.8,30.02,East,96,0.0,4.0,93,0.00,,,0.00,WUHU216DAVISVP2,2013-01-03 16:03:00,
2013-01-03 11:08:00,23.7,21.9,30.02,East,82,2.0,5.0,93,0.00,,,0.00,WUHU216DAVISVP2,2013-01-03 16:08:00,
2013-01-03 11:13:00,23.9,21.9,30.02,NE,49,2.0,6.0,92,0.00,,,0.00,WUHU216DAVISVP2,2013-01-03 16:13:00,
2013-01-03 11:18:00,24.1,22.1,30.02,East,84,2.0,6.0,92,0.00,,,0.00,WUHU216DAVISVP2,2013-01-03 16:18:00,
2013-01-03 11:23:00,24.3,22.3,30.02,NE,46,3.0,6.0,92,0.00,,,0.00,WUHU216DAVISVP2,2013-01-03 16:23:00,
2013-01-03 11:28:00,24.5,22.5,30.02,East,87,2.0,8.0,92,0.00,,,0.00,WUHU216DAVISVP2,2013-01-03 16:28:00,
2013-01-03 11:33:00,24.8,22.8,30.01,East,91,4.0,9.0,92,0.00,,,0.00,WUHU216DAVISVP2,2013-01-03 16:33:00,
2013-01-03 11:38:00,25.2,23.2,30.01,NE,39,6.0,9.0,92,0.00,,,0.00,WUHU216DAVISVP2,2013-01-03 16:38:00,
2013-01-03 11:43:00,25.4,23.1,30.01,East,86,2.0,9.0,91,0.00,,,0.00,WUHU216DAVISVP2,2013-01-03 16:43:00,
2013-01-03 11:48:00,25.6,23.3,30.01,East,97,6.0,9.0,91,0.00,,,0.00,WUHU216DAVISVP2,2013-01-03 16:48:00,
2013-01-03 11:53:00,25.7,23.2,30.01,East,86,7.0,9.0,90,0.00,,,0.00,WUHU216DAVISVP2,2013-01-03 16:53:00,
2013-01-03 11:55:00,25.8,23.3,30.01,ENE,60,4.0,9.0,90,0.00,,,0.00,WUHU216DAVISVP2,2013-01-03 16:55:00,
2013-01-03 11:56:00,25.8,23.2,30.01,ENE,76,4.0,9.0,90,0.00,,,0.00,WUHU216DAVISVP2,2013-01-03 16:56:00,
2013-01-03 11:57:00,25.8,23.2,30.01,ENE,75,11.0,13.0,90,0.00,,,0.00,WUHU216DAVISVP2,2013-01-03 16:57:00,
2013-01-03 12:01:00,25.9,23.3,30.01,East,90,9.0,13.0,90,0.00,,,0.00,WUHU216DAVISVP2,2013-01-03 17:01:00,
2013-01-03 12:04:00,25.9,23.4,30.00,ENE,71,7.0,13.0,90,0.00,,,0.00,WUHU216DAVISVP2,2013-01-03 17:04:00,
2013-01-03 12:05:00,25.9,23.4,30.00,ENE,78,8.0,13.0,90,0.00,,,0.00,WUHU216DAVISVP2,2013-01-03 17:05:00,
2013-01-03 12:09:00,26.0,23.4,30.00,ESE,118,7.0,13.0,90,0.00,,,0.00,WUHU216DAVISVP2,2013-01-03 17:09:00,
2013-01-03 12:11:00,26.0,23.4,30.00,East,99,6.0,13.0,90,0.00,,,0.00,WUHU216DAVISVP2,2013-01-03 17:11:00,
2013-01-03 12:12:00,26.0,23.4,30.00,East,97,5.0,13.0,90,0.00,,,0.00,WUHU216DAVISVP2,2013-01-03 17:12:00,
2013-01-03 12:13:00,26.1,23.5,30.00,ESE,103,4.0,13.0,90,0.00,,,0.00,WUHU216DAVISVP2,2013-01-03 17:13:00,
2013-01-03 12:18:00,26.2,23.4,30.01,ESE,104,5.0,17.0,89,0.00,,,0.00,WUHU216DAVISVP2,2013-01-03 17:18:00,
2013-01-03 12:20:00,26.2,23.4,30.00,SE,141,4.0,17.0,89,0.00,,,0.00,WUHU216DAVISVP2,2013-01-03 17:20:00,
2013-01-03 12:21:00,26.2,23.4,30.01,East,94,7.0,17.0,89,0.00,,,0.00,WUHU216DAVISVP2,2013-01-03 17:21:00,
2013-01-03 12:22:00,26.2,23.4,30.01,East,99,6.0,17.0,89,0.00,,,0.00,WUHU216DAVISVP2,2013-01-03 17:22:00,
2013-01-03 12:23:00,26.2,23.4,30.01,East,84,7.0,17.0,89,0.00,,,0.00,WUHU216DAVISVP2,2013-01-03 17:23:00,
2013-01-03 12:26:00,26.2,23.4,30.01,East,86,13.0,17.0,89,0.00,,,0.00,WUHU216DAVISVP2,2013-01-03 17:26:00,
2013-01-03 12:28:00,26.2,23.4,30.01,East,89,6.0,17.0,89,0.00,,,0.00,WUHU216DAVISVP2,2013-01-03 17:28:00,
2013-01-03 12:29:00,26.2,23.4,30.01,East,81,13.0,17.0,89,0.00,,,0.00,WUHU216DAVISVP2,2013-01-03 17:29:00,
2013-01-03 12:31:00,26.2,23.4,30.01,SE,129,13.0,17.0,89,0.00,,,0.00,WUHU216DAVISVP2,2013-01-03 17:31:00,
2013-01-03 12:33:00,26.2,23.4,30.01,East,89,7.0,17.0,89,0.00,,,0.00,WUHU216DAVISVP2,2013-01-03 17:33:00,
2013-01-03 12:34:00,26.2,23.4,30.01,ESE,105,10.0,17.0,89,0.00,,,0.00,WUHU216DAVISVP2,2013-01-03 17:34:00,
2013-01-03 12:36:00,26.2,23.4,30.01,ENE,76,11.0,17.0,89,0.00,,,0.00,WUHU216DAVISVP2,2013-01-03 17:36:00,
2013-01-03 12:37:00,26.2,23.1,30.01,East,96,6.0,17.0,88,0.00,,,0.00,WUHU216DAVISVP2,2013-01-03 17:37:00,
2013-01-03 12:42:00,26.2,23.1,30.01,SE,125,8.0,15.0,88,0.00,,,0.00,WUHU216DAVISVP2,2013-01-03 17:42:00,
2013-01-03 12:44:00,26.2,23.1,30.00,East,95,7.0,15.0,88,0.00,,,0.00,WUHU216DAVISVP2,2013-01-03 17:44:00,
2013-01-03 12:45:00,26.2,23.1,30.00,East,99,13.0,15.0,88,0.00,,,0.00,WUHU216DAVISVP2,2013-01-03 17:45:00,
2013-01-03 12:46:00,26.2,23.1,30.00,East,98,7.0,17.0,88,0.00,,,0.00,WUHU216DAVISVP2,2013-01-03 17:46:00,
2013-01-03 12:47:00,26.2,23.1,30.01,East,95,6.0,17.0,88,0.00,,,0.00,WUHU216DAVISVP2,2013-01-03 17:47:00,
2013-01-03 12:50:00,26.2,23.1,30.00,East,94,10.0,17.0,88,0.00,,,0.00,WUHU216DAVISVP2,2013-01-03 17:50:00,
2013-01-03 12:52:00,26.2,23.1,30.01,ESE,104,7.0,17.0,88,0.00,,,0.00,WUHU216DAVISVP2,2013-01-03 17:52:00,
2013-01-03 12:53:00,26.2,23.1,30.01,East,93,12.0,17.0,88,0.00,,,0.00,WUHU216DAVISVP2,2013-01-03 17:53:00,
2013-01-03 12:54:00,26.2,23.1,30.01,ESE,121,8.0,17.0,88,0.00,,,0.00,WUHU216DAVISVP2,2013-01-03 17:54:00,
2013-01-03 12:57:00,26.2,23.1,30.01,ESE,121,4.0,16.0,88,0.00,,,0.00,WUHU216DAVISVP2,2013-01-03 17:57:00,
2013-01-03 12:58:00,26.2,23.1,30.01,NE,43,4.0,16.0,88,0.00,,,0.00,WUHU216DAVISVP2,2013-01-03 17:58:00,
2013-01-03 13:00:00,26.2,23.1,30.01,ENE,70,12.0,16.0,88,0.00,,,0.00,WUHU216DAVISVP2,2013-01-03 18:00:00,
2013-01-03 13:01:00,26.3,23.2,30.00,East,101,7.0,16.0,88,0.00,,,0.00,WUHU216DAVISVP2,2013-01-03 18:01:00,
2013-01-03 13:06:00,26.2,22.8,30.00,ENE,74,10.0,14.0,87,0.00,,,0.00,WUHU216DAVISVP2,2013-01-03 18:06:00,
2013-01-03 13:08:00,26.2,22.8,30.00,ESE,116,4.0,14.0,87,0.00,,,0.00,WUHU216DAVISVP2,2013-01-03 18:08:00,
2013-01-03 13:09:00,26.2,22.8,30.00,ENE,75,11.0,14.0,87,0.00,,,0.00,WUHU216DAVISVP2,2013-01-03 18:09:00,
2013-01-03 13:10:00,26.2,22.8,30.00,SE,128,11.0,14.0,87,0.00,,,0.00,WUHU216DAVISVP2,2013-01-03 18:10:00,
2013-01-03 13:11:00,26.1,22.7,30.00,East,93,9.0,14.0,87,0.00,,,0.00,WUHU216DAVISVP2,2013-01-03 18:11:00,
2013-01-03 13:14:00,26.2,22.8,30.00,SE,146,3.0,14.0,87,0.00,,,0.00,WUHU216DAVISVP2,2013-01-03 18:14:00,
2013-01-03 13:16:00,26.2,22.8,30.00,SE,127,4.0,14.0,87,0.00,,,0.00,WUHU216DAVISVP2,2013-01-03 18:16:00,
2013-01-03 13:17:00,26.2,22.8,30.00,East,86,8.0,14.0,87,0.00,,,0.00,WUHU216DAVISVP2,2013-01-03 18:17:00,
2013-01-03 13:18:00,26.2,22.9,30.00,East,85,11.0,14.0,87,0.00,,,0.00,WUHU216DAVISVP2,2013-01-03 18:18:00,
2013-01-03 13:21:00,26.2,22.9,30.00,SE,125,4.0,15.0,87,0.00,,,0.00,WUHU216DAVISVP2,2013-01-03 18:21:00,
2013-01-03 13:22:00,26.2,22.9,30.00,SE,136,5.0,15.0,87,0.00,,,0.00,WUHU216DAVISVP2,2013-01-03 18:22:00,
2013-01-03 13:24:00,26.2,22.9,30.00,East,96,7.0,15.0,87,0.00,,,0.00,WUHU216DAVISVP2,2013-01-03 18:24:00,
2013-01-03 13:25:00,26.2,22.9,30.00,East,81,12.0,15.0,87,0.00,,,0.00,WUHU216DAVISVP2,2013-01-03 18:25:00,
2013-01-03 13:37:00,26.2,22.8,30.00,East,91,13.0,17.0,87,0.00,,,0.00,WUHU216DAVISVP2,2013-01-03 18:37:00,
2013-01-03 13:42:00,26.1,22.5,30.00,ESE,103,8.0,17.0,86,0.00,,,0.00,WUHU216DAVISVP2,2013-01-03 18:42:00,
2013-01-03 13:47:00,26.1,22.5,30.00,ESE,110,7.0,15.0,86,0.00,,,0.00,WUHU216DAVISVP2,2013-01-03 18:47:00,
2013-01-03 13:52:00,26.1,22.7,30.00,SE,146,4.0,15.0,87,0.00,,,0.00,WUHU216DAVISVP2,2013-01-03 18:52:00,
2013-01-03 13:57:00,26.1,22.7,30.00,East,98,9.0,14.0,87,0.00,,,0.00,WUHU216DAVISVP2,2013-01-03 18:57:00,
2013-01-03 14:02:00,26.2,22.9,30.00,East,87,6.0,15.0,87,0.00,,,0.00,WUHU216DAVISVP2,2013-01-03 19:02:00,
2013-01-03 14:07:00,26.1,22.8,30.01,NE,53,8.0,15.0,87,0.00,,,0.00,WUHU216DAVISVP2,2013-01-03 19:07:00,
2013-01-03 14:12:00,26.0,22.7,30.01,East,95,7.0,14.0,87,0.00,,,0.00,WUHU216DAVISVP2,2013-01-03 19:12:00,
2013-01-03 14:17:00,26.1,22.7,30.01,ESE,108,7.0,13.0,87,0.00,,,0.00,WUHU216DAVISVP2,2013-01-03 19:17:00,
2013-01-03 14:54:00,25.8,22.4,30.02,East,91,6.0,14.0,87,0.00,,,0.00,WUHU216DAVISVP2,2013-01-03 19:54:00,
2013-01-03 14:59:00,25.9,22.5,30.02,ENE,68,7.0,13.0,87,0.00,,,0.00,WUHU216DAVISVP2,2013-01-03 19:59:00,
2013-01-03 15:04:00,25.9,22.6,30.02,East,87,6.0,13.0,87,0.00,,,0.00,WUHU216DAVISVP2,2013-01-03 20:04:00,
2013-01-03 15:09:00,25.9,22.5,30.02,ENE,71,7.0,14.0,87,0.00,,,0.00,WUHU216DAVISVP2,2013-01-03 20:09:00,
2013-01-03 15:14:00,25.9,22.5,30.02,East,94,4.0,14.0,87,0.00,,,0.00,WUHU216DAVISVP2,2013-01-03 20:14:00,
2013-01-03 15:19:00,25.9,22.5,30.03,ENE,73,6.0,13.0,87,0.00,,,0.00,WUHU216DAVISVP2,2013-01-03 20:19:00,
2013-01-03 15:24:00,25.8,22.4,30.03,East,85,13.0,14.0,87,0.00,,,0.00,WUHU216DAVISVP2,2013-01-03 20:24:00,
2013-01-03 15:29:00,25.7,22.3,30.03,ESE,113,7.0,19.0,87,0.00,,,0.00,WUHU216DAVISVP2,2013-01-03 20:29:00,
2013-01-03 15:34:00,25.7,22.4,30.03,ENE,73,9.0,19.0,87,0.00,,,0.00,WUHU216DAVISVP2,2013-01-03 20:34:00,
2013-01-03 15:40:00,25.5,22.1,30.03,East,93,5.0,17.0,87,0.00,,,0.00,WUHU216DAVISVP2,2013-01-03 20:40:00,
2013-01-03 15:45:00,25.5,22.1,30.04,ESE,123,3.0,16.0,87,0.00,,,0.00,WUHU216DAVISVP2,2013-01-03 20:45:00,
2013-01-03 15:51:00,25.5,22.1,30.04,SE,136,7.0,15.0,87,0.00,,,0.00,WUHU216DAVISVP2,2013-01-03 20:51:00,
2013-01-03 15:56:00,25.5,22.1,30.04,East,94,5.0,14.0,87,0.00,,,0.00,WUHU216DAVISVP2,2013-01-03 20:56:00,
2013-01-03 16:01:00,25.5,22.1,30.04,ENE,77,7.0,14.0,87,0.00,,,0.00,WUHU216DAVISVP2,2013-01-03 21:01:00,
2013-01-03 16:06:00,25.5,22.1,30.05,ENE,74,6.0,14.0,87,0.00,,,0.00,WUHU216DAVISVP2,2013-01-03 21:06:00,
2013-01-03 16:11:00,25.5,22.2,30.05,East,86,8.0,12.0,87,0.00,,,0.00,WUHU216DAVISVP2,2013-01-03 21:11:00,
2013-01-03 16:16:00,25.5,22.1,30.05,SE,124,5.0,12.0,87,0.00,,,0.00,WUHU216DAVISVP2,2013-01-03 21:16:00,
2013-01-03 16:21:00,25.5,22.1,30.05,East,99,6.0,10.0,87,0.00,,,0.00,WUHU216DAVISVP2,2013-01-03 21:21:00,
2013-01-03 16:26:00,25.5,22.1,30.06,ESE,120,3.0,10.0,87,0.00,,,0.00,WUHU216DAVISVP2,2013-01-03 21:26:00,
2013-01-03 16:31:00,25.5,22.1,30.06,ESE,110,4.0,10.0,87,0.00,,,0.00,WUHU216DAVISVP2,2013-01-03 21:31:00,
2013-01-03 16:36:00,25.5,22.1,30.06,ESE,108,4.0,11.0,87,0.00,,,0.00,WUHU216DAVISVP2,2013-01-03 21:36:00,
2013-01-03 16:41:00,25.5,22.1,30.06,East,96,4.0,11.0,87,0.00,,,0.00,WUHU216DAVISVP2,2013-01-03 21:41:00,
2013-01-03 16:46:00,25.5,22.1,30.06,SE,136,2.0,10.0,87,0.00,,,0.00,WUHU216DAVISVP2,2013-01-03 21:46:00,
2013-01-03 16:51:00,25.5,22.1,30.07,East,90,2.0,8.0,87,0.00,,,0.00,WUHU216DAVISVP2,2013-01-03 21:51:00,
2013-01-03 16:56:00,25.5,22.2,30.07,ESE,109,5.0,8.0,87,0.00,,,0.00,WUHU216DAVISVP2,2013-01-03 21:56:00,
2013-01-03 17:01:00,25.5,22.1,30.07,SE,138,3.0,8.0,87,0.00,,,0.00,WUHU216DAVISVP2,2013-01-03 22:01:00,
2013-01-03 17:06:00,25.6,22.2,30.07,SE,127,1.0,8.0,87,0.00,,,0.00,WUHU216DAVISVP2,2013-01-03 22:06:00,
2013-01-03 17:11:00,25.6,22.2,30.07,East,86,5.0,8.0,87,0.00,,,0.00,WUHU216DAVISVP2,2013-01-03 22:11:00,
2013-01-03 17:16:00,25.6,22.2,30.08,East,99,1.0,7.0,87,0.00,,,0.00,WUHU216DAVISVP2,2013-01-03 22:16:00,
2013-01-03 17:21:00,25.5,22.1,30.08,East,90,2.0,7.0,87,0.00,,,0.00,WUHU216DAVISVP2,2013-01-03 22:21:00,
2013-01-03 17:26:00,25.6,22.2,30.08,ENE,78,2.0,7.0,87,0.00,,,0.00,WUHU216DAVISVP2,2013-01-03 22:26:00,
2013-01-03 17:31:00,25.6,22.2,30.08,East,80,5.0,7.0,87,0.00,,,0.00,WUHU216DAVISVP2,2013-01-03 22:31:00,
2013-01-03 17:36:00,25.6,22.3,30.08,East,89,7.0,9.0,87,0.00,,,0.00,WUHU216DAVISVP2,2013-01-03 22:36:00,
2013-01-03 17:41:00,25.7,22.3,30.08,East,86,6.0,9.0,87,0.00,,,0.00,WUHU216DAVISVP2,2013-01-03 22:41:00,
2013-01-03 17:46:00,25.7,22.3,30.08,East,98,4.0,9.0,87,0.00,,,0.00,WUHU216DAVISVP2,2013-01-03 22:46:00,
2013-01-03 17:51:00,25.7,22.3,30.08,ENE,76,3.0,8.0,87,0.00,,,0.00,WUHU216DAVISVP2,2013-01-03 22:51:00,
2013-01-03 17:56:00,25.8,22.4,30.09,East,84,3.0,8.0,87,0.00,,,0.00,WUHU216DAVISVP2,2013-01-03 22:56:00,
2013-01-03 18:01:00,25.8,22.4,30.09,East,81,6.0,8.0,87,0.00,,,0.00,WUHU216DAVISVP2,2013-01-03 23:01:00,
2013-01-03 18:06:00,25.8,22.4,30.09,East,91,2.0,8.0,87,0.00,,,0.00,WUHU216DAVISVP2,2013-01-03 23:06:00,
2013-01-03 18:11:00,25.8,22.4,30.09,East,85,2.0,8.0,87,0.00,,,0.00,WUHU216DAVISVP2,2013-01-03 23:11:00,
2013-01-03 18:16:00,25.8,22.4,30.09,East,80,4.0,8.0,87,0.00,,,0.00,WUHU216DAVISVP2,2013-01-03 23:16:00,
2013-01-03 18:21:00,25.8,22.4,30.09,East,88,3.0,8.0,87,0.00,,,0.00,WUHU216DAVISVP2,2013-01-03 23:21:00,
2013-01-03 18:26:00,25.8,22.4,30.09,East,83,4.0,7.0,87,0.00,,,0.00,WUHU216DAVISVP2,2013-01-03 23:26:00,
2013-01-03 18:31:00,25.8,22.4,30.09,ENE,76,3.0,7.0,87,0.00,,,0.00,WUHU216DAVISVP2,2013-01-03 23:31:00,
2013-01-03 18:36:00,25.8,22.4,30.09,East,80,2.0,6.0,87,0.00,,,0.00,WUHU216DAVISVP2,2013-01-03 23:36:00,
2013-01-03 18:41:00,25.9,22.5,30.10,ENE,70,4.0,8.0,87,0.00,,,0.00,WUHU216DAVISVP2,2013-01-03 23:41:00,
2013-01-03 18:46:00,25.9,22.5,30.10,ENE,68,4.0,8.0,87,0.00,,,0.00,WUHU216DAVISVP2,2013-01-03 23:46:00,
2013-01-03 18:51:00,25.9,22.6,30.10,ENE,71,2.0,8.0,87,0.00,,,0.00,WUHU216DAVISVP2,2013-01-03 23:51:00,
2013-01-03 18:56:00,25.9,22.6,30.10,East,89,3.0,7.0,87,0.00,,,0.00,WUHU216DAVISVP2,2013-01-03 23:56:00,
2013-01-03 19:01:00,26.0,22.7,30.10,East,86,3.0,9.0,87,0.00,,,0.00,WUHU216DAVISVP2,2013-01-04 00:01:00,
2013-01-03 19:06:00,26.0,22.7,30.10,NE,46,3.0,9.0,87,0.00,,,0.00,WUHU216DAVISVP2,2013-01-04 00:06:00,
2013-01-03 19:11:00,26.0,22.7,30.10,ENE,64,2.0,8.0,87,0.00,,,0.00,WUHU216DAVISVP2,2013-01-04 00:11:00,
2013-01-03 19:17:00,26.1,23.0,30.10,ESE,104,4.0,8.0,88,0.00,,,0.00,WUHU216DAVISVP2,2013-01-04 00:17:00,
2013-01-03 19:22:00,26.0,22.9,30.10,ENE,60,3.0,7.0,88,0.00,,,0.00,WUHU216DAVISVP2,2013-01-04 00:22:00,
2013-01-03 19:27:00,26.1,23.0,30.10,ENE,60,4.0,10.0,88,0.00,,,0.00,WUHU216DAVISVP2,2013-01-04 00:27:00,
2013-01-03 19:32:00,26.1,23.0,30.10,ENE,74,3.0,10.0,88,0.00,,,0.00,WUHU216DAVISVP2,2013-01-04 00:32:00,
2013-01-03 19:37:00,26.2,22.9,30.10,ESE,106,4.0,9.0,87,0.00,,,0.00,WUHU216DAVISVP2,2013-01-04 00:37:00,
2013-01-03 19:42:00,26.2,22.9,30.10,East,89,5.0,9.0,87,0.00,,,0.00,WUHU216DAVISVP2,2013-01-04 00:42:00,
2013-01-03 19:47:00,26.3,22.9,30.10,East,85,5.0,9.0,87,0.00,,,0.00,WUHU216DAVISVP2,2013-01-04 00:47:00,
2013-01-03 19:52:00,26.4,23.1,30.10,East,99,8.0,9.0,87,0.00,,,0.00,WUHU216DAVISVP2,2013-01-04 00:52:00,
2013-01-03 19:57:00,26.6,22.9,30.10,ENE,70,8.0,11.0,86,0.00,,,0.00,WUHU216DAVISVP2,2013-01-04 00:57:00,
2013-01-03 20:02:00,26.7,23.0,30.10,East,81,10.0,13.0,86,0.00,,,0.00,WUHU216DAVISVP2,2013-01-04 01:02:00,
2013-01-03 20:07:00,26.7,22.8,30.10,East,101,8.0,13.0,85,0.00,,,0.00,WUHU216DAVISVP2,2013-01-04 01:07:00,
2013-01-03 20:12:00,26.8,22.6,30.10,East,97,6.0,13.0,84,0.00,,,0.00,WUHU216DAVISVP2,2013-01-04 01:12:00,
2013-01-03 20:17:00,26.8,22.6,30.10,East,97,7.0,13.0,84,0.00,,,0.00,WUHU216DAVISVP2,2013-01-04 01:17:00,
2013-01-03 20:22:00,26.9,22.4,30.10,East,96,7.0,13.0,83,0.00,,,0.00,WUHU216DAVISVP2,2013-01-04 01:22:00,
2013-01-03 20:27:00,26.9,22.4,30.10,ESE,108,4.0,12.0,83,0.00,,,0.00,WUHU216DAVISVP2,2013-01-04 01:27:00,
2013-01-03 20:32:00,26.9,22.4,30.10,East,94,5.0,13.0,83,0.00,,,0.00,WUHU216DAVISVP2,2013-01-04 01:32:00,
2013-01-03 20:37:00,26.9,22.4,30.10,East,84,5.0,13.0,83,0.00,,,0.00,WUHU216DAVISVP2,2013-01-04 01:37:00,
2013-01-03 20:42:00,26.9,22.4,30.10,East,91,6.0,11.0,83,0.00,,,0.00,WUHU216DAVISVP2,2013-01-04 01:42:00,
2013-01-03 20:47:00,26.9,22.4,30.09,ENE,68,10.0,11.0,83,0.00,,,0.00,WUHU216DAVISVP2,2013-01-04 01:47:00,
2013-01-03 20:52:00,26.9,22.7,30.10,East,85,7.0,11.0,84,0.00,,,0.00,WUHU216DAVISVP2,2013-01-04 01:52:00,
2013-01-03 20:57:00,26.9,22.7,30.10,East,93,6.0,11.0,84,0.00,,,0.00,WUHU216DAVISVP2,2013-01-04 01:57:00,
2013-01-03 21:02:00,26.9,22.7,30.10,East,92,5.0,15.0,84,0.00,,,0.00,WUHU216DAVISVP2,2013-01-04 02:02:00,
2013-01-03 21:07:00,26.9,22.7,30.10,East,83,3.0,15.0,84,0.00,,,0.00,WUHU216DAVISVP2,2013-01-04 02:07:00,
2013-01-03 21:12:00,26.9,22.7,30.10,East,84,7.0,13.0,84,0.00,,,0.00,WUHU216DAVISVP2,2013-01-04 02:12:00,
2013-01-03 21:17:00,26.9,22.7,30.10,East,81,4.0,13.0,84,0.00,,,0.00,WUHU216DAVISVP2,2013-01-04 02:17:00,
2013-01-03 21:22:00,26.9,22.7,30.10,ENE,72,5.0,12.0,84,0.00,,,0.00,WUHU216DAVISVP2,2013-01-04 02:22:00,
2013-01-03 21:27:00,26.9,22.7,30.10,East,84,8.0,12.0,84,0.00,,,0.00,WUHU216DAVISVP2,2013-01-04 02:27:00,
2013-01-03 21:32:00,26.9,22.7,30.10,East,89,10.0,13.0,84,0.00,,,0.00,WUHU216DAVISVP2,2013-01-04 02:32:00,
2013-01-03 21:37:00,27.0,22.8,30.09,East,87,4.0,13.0,84,0.00,,,0.00,WUHU216DAVISVP2,2013-01-04 02:37:00,
2013-01-03 21:42:00,27.0,22.8,30.09,ESE,117,10.0,17.0,84,0.00,,,0.00,WUHU216DAVISVP2,2013-01-04 02:42:00,
2013-01-03 21:47:00,27.0,22.8,30.09,ENE,78,8.0,17.0,84,0.00,,,0.00,WUHU216DAVISVP2,2013-01-04 02:47:00,
2013-01-03 21:52:00,27.0,22.8,30.09,East,86,8.0,16.0,84,0.00,,,0.00,WUHU216DAVISVP2,2013-01-04 02:52:00,
2013-01-03 21:57:00,26.9,23.0,30.09,East,86,5.0,15.0,85,0.00,,,0.00,WUHU216DAVISVP2,2013-01-04 02:57:00,
2013-01-03 22:02:00,26.9,23.0,30.09,East,95,5.0,11.0,85,0.00,,,0.00,WUHU216DAVISVP2,2013-01-04 03:02:00,
2013-01-03 22:07:00,26.8,22.9,30.09,East,90,10.0,14.0,85,0.00,,,0.00,WUHU216DAVISVP2,2013-01-04 03:07:00,
2013-01-03 22:12:00,26.7,22.5,30.09,ENE,68,7.0,18.0,84,0.00,,,0.00,WUHU216DAVISVP2,2013-01-04 03:12:00,
2013-01-03 22:17:00,26.7,22.5,30.09,ENE,74,8.0,18.0,84,0.00,,,0.00,WUHU216DAVISVP2,2013-01-04 03:17:00,
2013-01-03 22:22:00,26.6,22.4,30.09,East,96,10.0,21.0,84,0.00,,,0.00,WUHU216DAVISVP2,2013-01-04 03:22:00,
2013-01-03 22:27:00,26.6,22.4,30.09,East,94,14.0,22.0,84,0.00,,,0.00,WUHU216DAVISVP2,2013-01-04 03:27:00,
2013-01-03 22:32:00,26.5,22.3,30.08,East,86,6.0,22.0,84,0.00,,,0.00,WUHU216DAVISVP2,2013-01-04 03:32:00,
2013-01-03 22:37:00,26.5,22.3,30.08,East,85,10.0,22.0,84,0.00,,,0.00,WUHU216DAVISVP2,2013-01-04 03:37:00,
2013-01-03 22:42:00,26.5,22.3,30.08,ESE,103,8.0,21.0,84,0.00,,,0.00,WUHU216DAVISVP2,2013-01-04 03:42:00,
2013-01-03 22:47:00,26.5,22.3,30.08,East,95,8.0,15.0,84,0.00,,,0.00,WUHU216DAVISVP2,2013-01-04 03:47:00,
2013-01-03 22:52:00,26.5,22.3,30.08,ESE,107,9.0,16.0,84,0.00,,,0.00,WUHU216DAVISVP2,2013-01-04 03:52:00,
2013-01-03 22:57:00,26.6,22.4,30.08,East,97,7.0,16.0,84,0.00,,,0.00,WUHU216DAVISVP2,2013-01-04 03:57:00,
2013-01-03 23:02:00,26.6,22.7,30.08,ENE,77,12.0,18.0,85,0.00,,,0.00,WUHU216DAVISVP2,2013-01-04 04:02:00,
2013-01-03 23:07:00,26.6,22.7,30.08,ENE,67,7.0,18.0,85,0.00,,,0.00,WUHU216DAVISVP2,2013-01-04 04:07:00,
2013-01-03 23:12:00,26.6,22.7,30.08,ENE,75,4.0,16.0,85,0.00,,,0.00,WUHU216DAVISVP2,2013-01-04 04:12:00,
2013-01-03 23:17:00,26.6,22.7,30.08,ENE,75,11.0,16.0,85,0.00,,,0.00,WUHU216DAVISVP2,2013-01-04 04:17:00,
2013-01-03 23:22:00,26.7,22.8,30.08,ENE,66,5.0,16.0,85,0.00,,,0.00,WUHU216DAVISVP2,2013-01-04 04:22:00,
2013-01-03 23:27:00,26.7,22.8,30.08,ENE,65,8.0,16.0,85,0.00,,,0.00,WUHU216DAVISVP2,2013-01-04 04:27:00,
2013-01-03 23:32:00,26.7,23.0,30.08,NE,53,3.0,15.0,86,0.00,,,0.00,WUHU216DAVISVP2,2013-01-04 04:32:00,
2013-01-03 23:37:00,26.7,23.0,30.08,East,89,6.0,15.0,86,0.00,,,0.00,WUHU216DAVISVP2,2013-01-04 04:37:00,
2013-01-03 23:42:00,26.8,23.1,30.08,East,79,8.0,14.0,86,0.00,,,0.00,WUHU216DAVISVP2,2013-01-04 04:42:00,
2013-01-03 23:47:00,26.8,23.1,30.08,East,97,3.0,15.0,86,0.00,,,0.00,WUHU216DAVISVP2,2013-01-04 04:47:00,
2013-01-03 23:52:00,26.9,23.2,30.08,ENE,60,5.0,16.0,86,0.00,,,0.00,WUHU216DAVISVP2,2013-01-04 04:52:00,
2013-01-03 23:57:00,26.9,23.2,30.08,East,94,7.0,16.0,86,0.00,,,0.00,WUHU216DAVISVP2,2013-01-04 04:57:00,